{"data":{"norad_id":63729,"epoch":"2026-05-25T05:25:07.829184Z","epoch_age_seconds":51676,"freshness":"FRESH","line1":"1 63729U 25088F   26145.22578506  .00000898  00000+0  14682-3 0  9991","line2":"2 63729  51.9005 129.6635 0000872   5.3618 354.7354 14.79931574 58904","mean_motion":14.79931574,"eccentricity":8.72e-5,"inclination_deg":51.9005,"raan_deg":129.6635,"arg_perigee_deg":5.3618,"mean_anomaly_deg":354.7354,"bstar":0.00014682,"rev_number":5890,"period_min":97.301795927492,"perigee_km":628.92906126145,"apogee_km":630.15120015304,"semimajor_km":7007.6771307072,"source":"CELESTRAK","updated_at":"2026-05-25T13:38:03.925385Z"}}